Temperature
27 27 26 26 28 30 29 30 30 29 29 29 28 27 26 26 25 23 22 22 21 20 19 19 19 19 19 18 18 18 18 18 18 18 18 18 18 18 18 18 18 18 18 18 18 18 18 18 18
27 26 27 29 29 29 29 30 30 29 29 28 28 27 26 25 24 23 22 21 21 20 19 19 19 19 19 18 18 18 18 18 18 18 18 18 18 18 18 18 18 18 18 18 18 18 18 18 18
28 27 29 31 30 29 29 30 30 30 29 28 27 26 26 25 24 23 22 21 20 19 20 20 19 19 19 19 18 18 18 18 18 18 18 18 18 18 18 18 18 18 18 18 18 18 18 18 18
28 30 31 32 31 31 31 31 31 30 29 29 27 26 25 24 23 23 22 21 20 19 19 20 19 19 19 19 18 18 18 18 18 18 18 18 18 18 18 18 18 18 18 18 18 18 18 18 18
30 31 32 31 31 31 32 31 31 30 29 28 27 25 24 24 23 23 22 22 21 20 20 20 20 19 19 19 18 18 18 18 18 18 18 18 18 18 18 18 18 18 18 18 18 18 18 18 18
31 33 32 31 31 32 32 31 31 30 29 27 26 25 24 23 23 23 23 22 21 20 20 20 20 19 19 19 19 19 19 19 18 18 18 18 18 18 18 18 18 18 18 18 18 18 18 18 18
33 33 33 32 31 31 32 31 31 30 30 28 27 25 24 24 23 23 23 22 22 21 20 20 20 20 19 19 19 19 19 19 18 18 18 18 18 18 18 18 18 18 18 18 18 18 18 18 18
34 34 33 32 31 31 32 31 30 30 29 29 28 26 24 24 24 23 23 22 22 21 21 20 19 19 19 19 19 19 19 19 19 18 18 18 18 18 18 18 18 18 18 18 18 18 18 18 18
35 34 33 33 32 32 32 31 30 30 29 28 28 26 24 24 24 23 23 22 22 22 21 21 20 19 19 19 19 19 19 19 18 18 18 18 18 18 18 18 18 18 18 18 18 18 18 18 18
35 33 33 34 33 33 32 31 30 30 29 27 26 25 24 24 24 24 23 23 22 22 21 21 21 20 20 19 19 19 18 19 18 18 18 18 18 18 18 18 18 18 18 18 18 18 18 18 18
35 34 34 34 33 33 32 32 31 30 29 27 26 25 25 24 24 24 23 23 22 22 22 21 20 20 20 20 19 19 19 19 18 18 18 18 18 18 18 18 18 18 18 18 18 18 18 18 18
35 35 35 34 33 33 33 32 31 30 29 27 26 25 25 25 25 24 23 23 22 22 21 21 20 20 20 20 19 19 19 19 19 19 18 18 18 18 18 18 18 18 18 18 18 18 18 18 18
35 35 34 34 34 33 32 32 31 30 28 27 26 26 25 25 25 24 23 23 22 22 21 21 20 20 19 19 19 19 19 19 19 19 19 18 18 18 18 18 18 18 18 18 18 18 18 18 18
35 35 34 34 33 33 32 31 31 29 28 27 27 26 26 25 25 24 23 22 22 21 21 20 20 20 19 19 19 19 19 19 19 19 18 18 18 18 18 18 18 18 18 18 18 18 18 18 18
35 34 34 34 34 33 31 30 31 29 29 28 27 26 26 26 25 24 23 22 22 21 21 20 20 20 19 19 19 19 19 19 19 19 18 18 18 18 18 18 18 18 18 18 18 18 18 18 18
35 33 32 34 34 33 32 30 31 30 29 28 27 27 26 25 25 24 23 23 22 21 21 20 20 20 20 19 19 19 19 19 19 19 18 18 18 18 18 18 18 18 18 18 18 18 18 18 18
33 32 32 33 35 34 32 30 31 30 30 29 28 27 26 25 25 24 24 23 22 21 21 20 20 20 20 19 19 19 19 19 19 19 19 18 18 18 18 18 18 18 18 18 18 18 18 18 18
33 32 33 33 34 34 33 31 31 31 30 29 29 28 27 26 25 24 24 23 22 21 21 20 20 20 19 19 19 19 19 19 19 19 19 19 18 18 18 18 18 18 18 18 18 18 18 18 18
34 34 33 34 34 34 33 32 32 32 31 30 29 28 27 26 25 25 24 23 22 21 21 20 20 20 20 19 19 19 19 19 19 19 19 19 19 18 18 18 18 18 18 18 18 18 18 18 18
34 34 34 34 34 34 33 32 33 32 32 31 30 29 28 27 26 25 24 23 22 21 21 20 20 20 20 20 19 19 19 19 19 19 19 19 19 19 18 18 18 18 18 18 18 18 18 18 18
34 34 34 34 34 34 33 31 31 32 32 31 31 30 29 27 26 25 24 23 22 22 21 21 20 20 20 19 19 19 19 19 19 19 19 19 19 19 18 18 18 18 18 18 18 18 18 18 18
33 35 35 34 33 32 33 30 30 31 31 32 31 30 29 28 27 25 24 23 23 22 21 21 20 20 20 19 19 19 19 19 19 19 19 19 19 18 18 18 18 18 18 18 18 18 18 18 18
34 35 35 34 33 32 33 31 30 30 31 32 32 31 30 28 27 26 25 23 23 22 21 21 20 20 20 20 19 19 19 19 19 19 19 19 18 18 18 18 18 18 18 18 18 18 18 18 18
35 34 34 33 33 31 32 32 30 31 31 32 32 31 30 29 27 26 25 24 23 22 21 21 20 20 20 20 20 19 19 19 19 19 19 18 18 18 18 18 18 18 18 18 18 18 18 18 18
34 33 31 30 30 31 33 33 32 33 33 32 32 31 30 29 27 26 25 24 23 22 22 21 20 20 20 20 20 19 19 19 19 19 18 18 18 18 18 18 18 18 18 18 18 18 17 17 17
33 33 31 30 30 31 32 32 33 34 33 33 32 31 30 29 27 26 25 24 23 22 22 21 20 20 20 20 20 19 19 19 19 18 18 18 18 18 18 18 18 17 17 17 17 17 17 17 17
33 33 34 32 32 31 31 32 33 34 33 33 32 31 30 29 28 26 25 24 23 22 22 21 20 20 20 20 19 19 19 19 19 18 18 18 18 18 18 17 17 17 17 17 17 17 17 17 16
34 34 33 32 30 30 31 31 31 32 32 33 32 31 30 29 28 26 25 24 23 22 22 21 20 20 20 20 19 19 19 19 19 18 18 18 18 17 17 17 17 17 17 17 17 16 16 16 16
33 33 32 32 32 31 30 30 33 32 32 32 32 31 30 29 28 26 25 24 24 22 22 21 20 20 20 19 19 19 18 18 18 18 18 18 17 17 17 17 17 16 16 16 16 16 16 16 16
34 33 33 31 30 31 31 31 34 33 33 32 32 31 30 29 28 26 25 24 24 23 22 21 20 20 20 20 19 19 18 18 18 18 18 17 17 17 17 16 16 16 16 16 16 16 16 16 16
Wind_Speed
9 10 9 6 2 6 16 16 15 15 16 16 16 15 19 18 13 12 12 17 18 17 17 16 14 14 14 14 14 14 15 15 16 16 16 16 16 17 17 17 18 18 19 18 18 18 18 17 16
9 11 9 4 3 11 15 14 16 15 14 15 17 19 20 19 17 15 14 16 17 17 16 15 14 14 14 14 14 14 14 14 15 15 15 16 16 16 16 16 17 17 17 17 17 17 16 16 14
11 14 6 2 11 13 15 14 14 14 13 16 18 18 15 15 16 13 14 17 18 17 17 15 14 13 13 13 13 13 13 14 14 14 15 15 15 15 15 16 16 16 16 16 16 16 15 14 12
8 6 1 9 17 16 14 13 13 14 13 14 15 13 15 15 16 16 15 17 17 16 17 15 14 13 13 12 12 13 13 13 13 14 14 14 14 15 15 15 15 15 15 15 15 14 13 12 10
8 3 7 14 17 16 14 14 13 14 15 17 19 18 17 17 17 16 14 14 15 17 17 16 14 14 13 12 12 12 12 12 12 12 13 13 13 14 14 14 14 14 14 14 14 13 12 10 8
5 2 8 14 16 15 14 13 14 15 15 18 18 18 15 14 14 13 13 13 15 17 17 16 14 14 13 12 12 11 11 11 11 11 12 12 12 13 13 13 13 13 13 12 12 11 10 8 6
4 3 11 15 15 14 14 13 14 13 13 15 16 16 14 13 12 13 11 11 13 16 16 14 14 13 13 12 11 11 10 10 10 10 10 10 11 12 12 11 11 11 11 11 10 9 8 6 3
2 3 12 14 15 15 14 15 14 13 12 11 13 12 14 13 13 13 11 10 11 12 13 13 14 14 13 12 11 10 10 9 9 9 9 9 10 11 11 11 10 9 9 9 8 7 6 5 3
2 6 12 14 15 14 14 14 14 13 12 12 14 18 17 15 14 12 11 10 9 10 9 10 11 12 12 12 12 11 10 9 8 8 8 8 8 9 9 10 9 8 8 7 7 6 6 5 4
5 9 14 14 14 14 13 13 13 13 15 16 18 18 17 14 12 11 11 10 9 8 9 8 8 7 7 9 10 9 9 9 6 6 7 6 3 6 9 11 9 8 8 7 7 7 6 6 5
9 11 13 15 14 13 12 12 12 13 14 16 17 18 15 14 11 11 10 10 9 6 7 9 8 4 5 5 6 5 6 7 5 5 4 4 4 5 8 7 8 8 8 6 7 7 6 5 3
9 11 11 12 11 11 11 12 14 14 15 17 17 16 14 13 11 11 10 11 8 6 7 8 8 6 6 4 3 4 5 4 5 5 2 3 1 1 3 3 5 6 6 4 4 4 3 2 2
8 9 10 10 10 11 11 13 15 16 16 18 17 15 14 12 11 10 10 10 9 6 7 8 8 6 4 3 2 2 3 3 5 4 3 2 2 2 2 1 0 1 3 4 2 1 2 1 1
6 7 8 10 10 10 11 9 13 15 16 17 16 14 13 12 12 11 10 9 8 6 6 7 6 6 4 2 1 1 2 3 4 3 3 1 2 2 2 1 0 1 1 1 1 1 2 1 2
5 5 6 7 8 10 11 8 11 16 16 16 14 13 12 11 11 11 10 9 8 7 6 6 6 6 4 3 2 2 2 3 3 4 3 1 1 2 1 1 2 1 1 1 1 2 1 2 2
6 6 6 7 7 9 7 7 13 15 15 14 14 13 11 10 11 11 10 9 9 8 7 5 5 7 5 3 2 1 1 2 2 3 4 3 2 2 2 2 1 2 2 1 1 2 2 1 1
7 7 6 7 7 6 6 8 12 14 14 14 13 13 13 11 10 10 11 10 9 8 7 5 2 5 5 4 2 2 0 1 1 2 2 2 2 3 3 2 1 3 2 2 2 1 1 1 2
5 5 5 5 6 4 7 9 12 14 13 14 13 13 13 13 11 11 10 10 9 8 7 6 4 4 4 3 2 2 2 2 1 1 2 2 2 3 3 3 3 3 2 1 1 0 1 2 3
5 3 4 4 5 3 5 10 10 12 12 13 14 14 13 13 12 11 11 10 10 8 7 6 5 5 3 2 2 2 3 2 2 2 3 4 3 2 3 2 1 2 2 2 2 1 2 3 3
7 6 4 5 6 3 4 6 11 12 12 12 13 14 13 13 13 12 10 10 10 9 7 6 6 6 5 3 2 2 2 2 2 1 2 3 2 3 3 2 2 1 1 1 2 2 2 3 1
9 7 5 3 3 5 4 4 7 10 10 11 12 13 14 14 14 13 11 10 10 9 8 7 6 6 5 4 3 2 1 1 0 2 2 2 2 2 2 1 1 1 1 1 2 2 3 2 2
10 7 5 4 4 6 5 4 5 9 11 12 12 12 14 14 14 14 13 11 10 10 9 7 6 5 4 3 3 3 3 2 2 1 1 2 3 3 2 2 1 1 1 1 2 2 2 2 2
9 6 6 7 7 9 7 4 6 8 11 12 13 12 13 14 14 14 13 11 10 10 9 8 7 5 4 3 3 3 2 2 1 1 2 2 2 2 1 1 0 0 1 1 2 2 2 2 2
8 8 8 9 9 10 9 6 5 7 8 9 11 12 12 13 14 13 13 11 10 9 9 10 8 6 5 4 3 2 2 1 0 0 1 1 1 1 1 1 0 1 1 1 2 2 2 2 2
11 10 7 7 8 9 9 6 5 9 9 8 10 11 12 12 13 14 13 13 10 10 9 9 9 7 5 4 3 2 2 2 1 1 1 1 0 0 1 1 0 1 1 1 1 1 1 1 1
13 14 10 7 7 6 6 4 6 11 10 9 10 12 13 13 13 14 14 13 11 10 10 9 9 7 6 4 3 1 2 2 1 2 1 0 0 1 2 1 1 2 2 2 1 1 1 2 2
14 14 15 12 12 7 5 4 7 11 11 10 11 13 14 14 14 15 15 14 12 11 10 9 9 7 6 5 4 2 1 0 0 0 0 1 1 1 2 2 2 2 2 2 3 3 3 2 2
15 13 9 10 8 8 6 6 5 11 11 11 11 11 14 15 15 14 13 13 12 11 10 10 9 7 6 5 4 3 2 2 2 1 2 2 3 3 3 3 3 3 3 3 3 3 3 3 3
15 15 11 8 9 9 6 2 5 8 9 9 11 11 12 14 15 14 14 13 13 12 12 10 9 8 6 5 4 3 3 3 3 2 3 3 3 3 4 3 3 4 4 4 4 4 4 4 4
16 17 14 10 8 9 8 4 2 7 9 9 9 11 10 11 14 15 14 13 12 13 12 11 10 9 7 6 5 5 4 4 4 4 4 4 4 3 4 4 4 4 4 4 5 5 5 5 5
Wind_Direction
249 241 228 246 253 74 69 70 72 71 66 62 63 68 63 63 77 92 106 102 103 104 105 96 88 85 83 82 81 80 79 78 77 77 78 79 82 85 86 86 85 86 88 88 89 89 90 91 92
264 252 236 238 68 75 71 71 73 75 79 80 76 77 76 76 87 99 102 101 103 104 100 95 93 88 86 85 83 81 81 80 79 79 79 81 82 85 88 88 88 88 89 90 91 91 92 93 95
261 258 267 83 69 73 76 75 82 88 88 85 77 70 74 88 94 102 108 104 99 98 100 98 96 92 89 87 85 85 84 82 81 81 82 82 83 85 88 89 89 88 90 91 92 93 93 95 96
260 248 143 71 74 75 81 86 90 91 89 90 89 80 79 89 101 110 113 108 110 112 106 104 100 96 93 91 89 88 86 84 84 83 83 83 84 86 89 90 90 89 91 92 93 94 94 94 94
253 272 85 78 77 78 80 85 85 85 84 85 91 94 90 95 106 113 112 113 115 112 112 110 106 102 97 96 95 93 91 89 88 87 87 88 88 90 92 92 91 91 93 95 96 97 97 95 93
262 200 89 84 81 81 80 84 89 89 96 102 104 102 101 110 114 115 113 115 116 115 113 116 114 110 106 102 99 98 97 95 94 94 95 95 95 95 95 96 95 94 95 96 96 99 101 98 91
274 80 92 92 90 84 81 81 86 92 99 106 112 111 118 121 118 113 110 110 113 115 122 128 128 121 117 112 109 107 107 106 107 107 108 107 107 104 102 101 100 100 101 101 100 101 105 108 100
333 68 88 93 94 89 88 87 86 89 88 110 122 118 127 128 125 119 117 114 112 116 125 135 136 137 137 128 126 124 123 123 125 126 127 126 125 122 120 113 110 111 114 115 114 117 123 133 147
12 79 81 89 97 100 97 97 97 97 94 81 89 113 128 135 130 128 123 112 104 108 118 126 127 142 143 136 139 145 143 148 152 153 155 160 158 137 137 117 127 131 134 135 139 145 153 166 190
58 76 79 88 98 103 104 106 112 108 102 97 100 114 129 137 138 134 130 124 115 117 117 110 104 121 133 127 145 158 152 153 174 148 163 176 142 129 125 138 147 154 159 163 174 181 187 205 199
77 83 88 94 100 108 113 115 114 109 113 119 125 132 138 139 141 134 127 120 121 129 114 112 104 97 93 106 135 147 139 149 152 130 134 143 134 137 134 152 164 178 180 191 181 196 204 208 199
82 85 87 95 105 108 107 101 94 98 111 123 132 137 142 148 142 137 133 127 127 122 111 107 109 88 59 57 101 142 131 145 134 123 121 117 114 124 127 151 173 178 175 174 187 205 179 199 197
96 98 99 102 101 95 93 96 99 102 115 125 134 142 149 146 140 131 127 126 129 126 113 98 100 97 87 46 357 92 99 109 117 126 104 132 157 104 103 60 77 199 158 162 194 196 147 208 230
111 110 111 114 108 112 101 106 113 121 129 132 140 148 151 144 140 133 134 130 135 138 124 119 125 121 119 122 1 53 111 120 125 126 121 93 87 86 97 153 268 279 147 138 205 188 157 217 245
142 129 132 133 135 125 117 127 128 135 138 142 147 152 151 148 143 143 143 144 145 147 135 136 147 140 155 166 210 186 166 139 131 132 133 159 138 135 164 219 222 231 220 176 204 262 216 216 224
188 186 169 151 149 144 143 138 140 147 149 150 155 155 157 153 154 149 146 149 150 151 144 169 167 146 160 183 235 264 164 133 152 161 154 176 183 181 229 237 230 219 225 214 221 240 257 266 292
217 204 170 157 153 149 144 132 150 159 157 159 163 163 163 162 163 154 154 158 155 146 147 167 167 146 160 178 200 243 35 123 170 154 147 163 208 198 226 251 226 239 232 223 242 166 245 289 279
233 207 182 155 139 159 143 146 164 167 166 168 171 170 169 170 172 162 162 162 156 147 149 161 173 159 167 179 191 232 220 189 191 167 163 167 218 214 225 235 214 239 242 225 225 223 243 266 269
255 217 181 144 137 192 158 152 170 173 178 174 175 175 176 174 170 167 170 167 157 151 154 165 174 165 176 194 198 205 207 209 191 188 181 176 216 229 230 277 222 226 237 234 234 222 249 256 251
261 254 203 165 158 202 184 173 173 177 184 179 177 175 174 172 167 166 167 163 157 154 160 165 171 172 178 191 201 219 217 209 185 170 153 179 200 231 229 219 254 247 255 248 265 265 262 269 267
250 248 246 229 189 222 207 215 182 174 180 179 181 178 176 175 169 167 172 169 165 165 171 176 167 169 179 186 202 227 217 266 183 152 158 191 203 228 265 253 268 296 270 226 230 242 246 259 272
248 250 253 261 253 264 236 220 196 180 188 184 184 181 177 174 169 169 173 173 170 168 168 155 154 158 168 179 208 219 208 202 204 194 183 193 201 212 212 219 238 281 305 296 261 225 235 246 264
249 257 253 258 259 264 260 247 181 189 194 186 183 181 175 171 168 167 167 167 169 168 163 156 150 153 159 172 202 232 234 213 201 177 197 206 206 212 185 140 130 303 287 297 302 327 286 272 272
246 250 252 264 263 259 253 246 186 181 183 179 175 171 168 167 162 158 157 156 162 161 160 156 150 154 163 182 195 213 240 246 265 275 191 210 198 177 146 163 187 298 311 303 290 289 279 283 286
229 236 235 240 241 245 244 237 155 153 157 167 169 162 164 161 157 156 157 158 161 161 158 152 150 154 162 170 183 194 220 217 223 259 248 235 243 162 94 84 110 297 307 327 325 291 305 321 318
226 234 238 247 251 253 242 225 145 137 139 142 145 159 161 161 160 159 159 157 161 159 153 150 149 151 154 154 161 181 218 209 213 228 246 186 107 44 83 98 84 51 25 9 9 23 15 22 357
231 234 247 257 269 265 244 205 148 138 140 143 149 157 158 160 160 160 158 159 159 157 153 149 143 146 151 153 150 152 157 189 244 259 92 37 28 58 70 88 77 60 38 24 34 51 27 33 38
244 244 248 254 269 270 242 237 196 154 158 157 155 158 156 158 158 157 160 159 157 155 148 143 144 144 145 150 158 153 142 120 94 72 77 68 52 58 57 56 59 57 47 41 46 55 45 53 39
224 238 245 259 264 267 265 257 143 152 163 163 159 155 156 158 154 158 159 156 153 151 149 146 145 144 145 140 131 115 116 113 110 108 90 79 67 69 67 58 58 58 47 44 49 53 51 51 41
230 232 231 237 254 271 272 256 130 147 154 154 149 146 149 149 152 156 153 148 152 151 151 151 151 149 146 139 129 118 107 98 94 86 82 79 74 73 73 67 63 63 56 51 51 52 50 49 45
Height
1480 1480 1481 1483 1482 1482 1490 1488 1485 1489 1491 1494 1495 1497 1502 1504 1512 1526 1529 1529 1530 1530 1531 1531 1531 1532 1532 1533 1533 1533 1534 1534 1534 1534 1534 1534 1535 1535 1535 1536 1536 1537 1537 1538 1539 1540 1541 1542 1543
1480 1481 1483 1481 1483 1495 1497 1488 1490 1493 1496 1498 1499 1503 1507 1512 1518 1524 1529 1531 1532 1533 1533 1533 1533 1534 1535 1535 1536 1536 1536 1536 1537 1537 1537 1537 1537 1538 1538 1539 1540 1540 1541 1542 1542 1543 1544 1545 1546
1480 1481 1482 1477 1484 1495 1498 1490 1491 1494 1497 1500 1504 1509 1513 1519 1523 1527 1531 1533 1534 1534 1534 1535 1535 1536 1537 1537 1538 1539 1539 1539 1539 1540 1540 1540 1540 1541 1541 1542 1543 1543 1544 1545 1545 1546 1547 1548 1549
1482 1481 1479 1479 1489 1488 1489 1490 1492 1495 1499 1502 1506 1514 1519 1523 1527 1530 1533 1534 1535 1536 1536 1537 1537 1538 1539 1540 1540 1541 1541 1542 1542 1542 1543 1543 1543 1544 1544 1545 1545 1546 1547 1547 1548 1549 1550 1551 1552
1483 1480 1479 1487 1489 1488 1488 1491 1494 1497 1501 1506 1511 1518 1524 1528 1530 1532 1535 1536 1537 1538 1538 1539 1539 1540 1541 1542 1542 1543 1543 1544 1544 1545 1545 1545 1546 1546 1547 1548 1548 1549 1549 1550 1551 1552 1552 1553 1554
1481 1476 1485 1494 1493 1489 1491 1493 1497 1501 1505 1510 1515 1521 1528 1531 1533 1535 1536 1538 1539 1540 1540 1541 1541 1542 1543 1544 1544 1545 1545 1546 1547 1547 1548 1548 1549 1549 1549 1550 1551 1551 1552 1553 1553 1554 1555 1556 1557
1478 1475 1483 1489 1494 1494 1494 1496 1499 1503 1506 1510 1516 1522 1529 1533 1535 1536 1538 1540 1541 1542 1542 1542 1543 1544 1545 1546 1546 1547 1548 1548 1549 1549 1550 1551 1551 1551 1552 1552 1553 1554 1554 1555 1556 1556 1557 1558 1559
1476 1475 1482 1487 1494 1497 1496 1499 1503 1506 1509 1512 1515 1521 1529 1534 1536 1538 1540 1542 1543 1544 1545 1545 1546 1546 1547 1548 1549 1549 1550 1550 1551 1552 1552 1553 1553 1554 1554 1555 1556 1556 1557 1557 1558 1559 1559 1560 1561
1475 1479 1488 1489 1493 1496 1498 1501 1506 1509 1512 1514 1516 1522 1530 1534 1537 1540 1542 1544 1545 1546 1547 1548 1549 1549 1550 1550 1550 1551 1551 1552 1553 1554 1555 1555 1555 1556 1557 1557 1558 1558 1559 1560 1560 1561 1562 1562 1563
1477 1485 1486 1485 1489 1494 1498 1502 1506 1509 1514 1519 1524 1528 1532 1535 1538 1540 1543 1545 1547 1548 1549 1550 1551 1552 1552 1553 1552 1553 1554 1554 1555 1556 1556 1557 1558 1558 1559 1559 1559 1560 1561 1561 1562 1563 1563 1563 1564
1479 1483 1484 1487 1491 1494 1498 1501 1504 1508 1515 1521 1526 1530 1534 1537 1539 1541 1544 1546 1547 1549 1550 1551 1552 1553 1554 1554 1554 1555 1556 1556 1556 1557 1558 1558 1559 1559 1560 1560 1561 1561 1562 1563 1563 1564 1564 1565 1565
1482 1483 1485 1489 1492 1494 1497 1501 1505 1510 1517 1522 1527 1531 1534 1537 1539 1542 1544 1546 1549 1550 1551 1552 1552 1553 1554 1555 1556 1556 1557 1557 1557 1558 1559 1559 1560 1560 1560 1561 1561 1562 1563 1563 1564 1565 1565 1566 1567
1484 1486 1488 1491 1493 1497 1500 1504 1509 1514 1519 1524 1528 1532 1535 1537 1540 1543 1545 1547 1549 1551 1552 1552 1553 1553 1554 1554 1555 1557 1557 1558 1558 1559 1559 1559 1560 1560 1561 1561 1562 1563 1563 1564 1565 1565 1565 1566 1567
1486 1487 1489 1492 1495 1498 1503 1507 1511 1517 1521 1525 1529 1532 1535 1538 1540 1543 1546 1547 1549 1551 1552 1552 1553 1553 1554 1554 1555 1556 1557 1558 1559 1559 1559 1560 1560 1560 1561 1561 1562 1563 1563 1564 1565 1565 1566 1566 1567
1486 1489 1492 1492 1494 1498 1504 1510 1512 1517 1521 1525 1529 1532 1535 1538 1541 1543 1545 1547 1549 1551 1552 1552 1553 1553 1554 1555 1556 1557 1557 1558 1558 1558 1559 1559 1560 1560 1561 1561 1562 1562 1563 1564 1564 1565 1565 1566 1567
1485 1492 1498 1492 1492 1496 1505 1516 1511 1516 1519 1524 1527 1531 1535 1538 1540 1543 1545 1547 1548 1550 1550 1552 1553 1553 1554 1555 1555 1557 1557 1557 1558 1558 1558 1558 1559 1559 1560 1560 1561 1562 1562 1563 1563 1564 1565 1566 1566
1489 1499 1500 1493 1489 1492 1500 1511 1510 1513 1517 1522 1526 1530 1533 1537 1539 1542 1544 1546 1547 1548 1549 1551 1553 1553 1554 1554 1555 1556 1556 1557 1557 1558 1558 1558 1558 1559 1559 1559 1560 1561 1561 1562 1563 1563 1564 1565 1565
1497 1497 1496 1494 1489 1491 1498 1505 1507 1510 1514 1518 1523 1527 1531 1535 1538 1541 1543 1545 1547 1548 1549 1550 1551 1552 1553 1554 1554 1555 1556 1556 1557 1557 1557 1557 1557 1558 1558 1559 1559 1560 1560 1561 1562 1562 1563 1563 1564
1485 1489 1494 1490 1487 1492 1497 1502 1504 1507 1510 1514 1519 1524 1528 1532 1536 1539 1542 1544 1545 1547 1548 1549 1550 1551 1552 1553 1553 1554 1555 1556 1556 1556 1556 1556 1556 1557 1557 1558 1558 1558 1559 1560 1561 1561 1561 1562 1562
1485 1490 1491 1488 1485 1491 1496 1498 1498 1503 1507 1510 1515 1520 1525 1530 1533 1537 1540 1542 1544 1545 1547 1548 1549 1550 1551 1552 1553 1553 1554 1555 1555 1555 1555 1555 1556 1556 1557 1556 1557 1557 1558 1558 1558 1559 1560 1560 1561
1486 1489 1489 1490 1486 1487 1495 1505 1501 1500 1504 1508 1512 1516 1521 1526 1530 1534 1538 1540 1542 1544 1545 1547 1548 1549 1550 1551 1552 1553 1553 1554 1554 1554 1554 1554 1555 1555 1555 1555 1556 1556 1556 1557 1557 1557 1558 1558 1559
1492 1481 1484 1488 1496 1500 1495 1517 1507 1501 1503 1505 1508 1512 1517 1522 1527 1531 1535 1538 1540 1542 1544 1545 1546 1547 1548 1549 1550 1552 1552 1552 1553 1553 1554 1554 1554 1554 1554 1554 1554 1555 1555 1555 1555 1556 1556 1556 1556
1484 1480 1483 1487 1494 1501 1495 1508 1511 1500 1503 1501 1504 1508 1513 1519 1524 1528 1532 1536 1539 1541 1543 1544 1545 1546 1547 1548 1549 1550 1551 1551 1552 1552 1552 1553 1553 1553 1553 1553 1553 1553 1554 1554 1554 1554 1554 1554 1554
1480 1483 1486 1489 1494 1513 1500 1506 1513 1499 1498 1497 1500 1505 1511 1516 1521 1526 1530 1534 1537 1540 1541 1542 1543 1544 1545 1546 1547 1548 1549 1550 1551 1551 1551 1551 1552 1552 1552 1552 1552 1552 1552 1552 1552 1552 1552 1552 1552
1483 1495 1511 1519 1517 1515 1491 1496 1500 1488 1488 1492 1497 1503 1509 1514 1519 1524 1529 1532 1536 1538 1540 1541 1542 1543 1544 1545 1546 1547 1548 1548 1549 1550 1550 1551 1551 1551 1551 1551 1551 1551 1551 1551 1551 1551 1551 1550 1550
1484 1490 1512 1528 1523 1508 1494 1498 1488 1480 1485 1490 1495 1501 1507 1512 1517 1522 1527 1530 1534 1537 1538 1540 1541 1542 1544 1544 1545 1546 1547 1547 1547 1548 1549 1549 1550 1550 1550 1550 1549 1549 1549 1549 1549 1549 1549 1549 1548
1485 1487 1482 1496 1501 1510 1504 1493 1485 1480 1485 1490 1494 1499 1504 1510 1515 1520 1525 1529 1532 1535 1537 1539 1539 1541 1543 1544 1544 1545 1545 1546 1546 1547 1547 1548 1548 1548 1548 1548 1548 1548 1548 1548 1548 1547 1547 1547 1546
1477 1479 1486 1498 1516 1520 1511 1502 1496 1488 1488 1488 1493 1497 1502 1508 1514 1520 1524 1528 1530 1533 1536 1538 1539 1541 1542 1543 1544 1545 1545 1545 1545 1545 1546 1547 1547 1547 1547 1547 1547 1547 1547 1547 1546 1546 1545 1545 1545
1482 1484 1486 1490 1496 1512 1520 1511 1480 1483 1485 1487 1491 1496 1501 1505 1511 1517 1522 1526 1529 1532 1535 1537 1539 1541 1542 1543 1544 1545 1545 1545 1545 1545 1546 1546 1547 1547 1547 1547 1546 1546 1546 1546 1545 1545 1544 1544 1544
1473 1478 1483 1500 1503 1498 1505 1505 1476 1478 1480 1486 1491 1496 1501 1505 1509 1515 1520 1524 1528 1531 1534 1536 1538 1540 1541 1543 1544 1544 1545 1545 1545 1546 1546 1546 1546 1546 1546 1546 1546 1546 1546 1545 1545 1544 1544 1543 1543